Total_Precipitation_Accumulation
0.00 0.00 0.00 0.00 0.00 0.00 0.01 0.01 0.02 0.03 0.03 0.03 0.06 0.14 0.29 0.38 0.40 0.40 0.36 0.40 0.65 1.07 1.34 1.49 1.67 1.79 2.01 2.23 2.48 2.71 2.95 3.13 3.02 3.08 3.12 3.05 2.74 2.62 2.39 2.15 1.91 1.83 1.80 1.95
0.00 0.01 0.00 0.00 0.00 0.01 0.01 0.01 0.02 0.04 0.04 0.06 0.09 0.17 0.31 0.38 0.44 0.44 0.44 0.55 0.67 0.90 1.25 1.40 1.47 1.62 1.81 2.08 2.51 2.88 2.82 2.75 2.66 2.85 3.11 3.30 3.27 2.90 2.39 2.16 2.04 1.82 1.75 1.86
0.01 0.02 0.01 0.00 0.00 0.01 0.02 0.02 0.04 0.04 0.04 0.07 0.11 0.30 0.41 0.39 0.46 0.49 0.50 0.59 0.70 0.85 1.00 1.13 1.17 1.26 1.42 1.70 2.02 2.16 1.99 1.97 1.92 2.00 2.25 2.43 2.72 2.60 2.30 2.04 1.90 1.80 1.76 1.74
0.01 0.01 0.01 0.01 0.01 0.01 0.02 0.03 0.03 0.02 0.04 0.08 0.13 0.32 0.51 0.69 0.77 0.66 0.63 0.66 0.86 0.97 0.97 1.02 1.07 1.15 1.17 1.12 1.11 1.15 1.24 1.30 1.37 1.50 1.75 2.02 2.28 2.27 2.19 2.12 1.87 1.67 1.53 1.49
0.02 0.01 0.01 0.02 0.03 0.02 0.03 0.03 0.03 0.03 0.04 0.07 0.12 0.27 0.57 0.86 0.96 0.76 0.71 0.76 0.91 0.89 0.83 0.85 0.91 0.95 0.94 0.92 0.94 0.95 1.05 1.19 1.30 1.42 1.57 1.76 2.10 2.10 1.93 1.79 1.64 1.55 1.47 1.39
0.03 0.02 0.02 0.02 0.03 0.02 0.03 0.04 0.05 0.06 0.08 0.20 0.22 0.30 0.59 0.85 0.77 0.74 0.71 0.72 0.75 0.70 0.73 0.77 0.77 0.78 0.77 0.78 0.87 0.93 0.95 1.04 1.12 1.18 1.28 1.34 1.50 1.56 1.46 1.40 1.35 1.28 1.20 1.18
0.10 0.08 0.06 0.04 0.03 0.04 0.05 0.07 0.20 0.35 0.44 0.50 0.36 0.48 0.90 0.82 0.69 0.67 0.68 0.71 0.74 0.70 0.63 0.64 0.70 0.71 0.74 0.74 0.77 0.82 0.86 0.91 0.88 0.85 0.83 0.84 0.94 1.07 1.10 1.10 1.11 1.09 0.98 0.92
0.19 0.20 0.12 0.06 0.05 0.07 0.09 0.15 0.36 0.42 0.36 0.38 0.36 0.71 1.04 0.72 0.66 0.62 0.55 0.53 0.52 0.49 0.45 0.45 0.49 0.54 0.59 0.62 0.65 0.66 0.69 0.73 0.74 0.74 0.76 0.71 0.74 0.84 0.92 1.01 0.97 0.94 0.84 0.74
0.11 0.12 0.07 0.05 0.05 0.08 0.17 0.22 0.22 0.35 0.35 0.38 0.46 0.72 0.80 0.65 0.65 0.59 0.56 0.53 0.49 0.44 0.40 0.38 0.38 0.41 0.41 0.41 0.43 0.47 0.53 0.62 0.66 0.69 0.70 0.63 0.67 0.79 0.85 0.91 0.94 0.98 0.97 0.88
0.05 0.06 0.06 0.04 0.05 0.10 0.12 0.14 0.20 0.31 0.34 0.35 0.37 0.65 0.92 0.92 0.84 0.74 0.78 0.69 0.57 0.45 0.36 0.32 0.27 0.26 0.25 0.28 0.34 0.45 0.58 0.63 0.58 0.55 0.52 0.49 0.57 0.75 0.80 0.76 0.77 0.89 0.94 0.94
0.02 0.03 0.06 0.08 0.08 0.09 0.12 0.15 0.21 0.27 0.26 0.32 0.39 0.55 0.50 0.65 0.76 0.77 0.71 0.64 0.52 0.40 0.33 0.29 0.23 0.19 0.19 0.22 0.28 0.39 0.47 0.53 0.52 0.46 0.42 0.39 0.43 0.50 0.58 0.63 0.65 0.72 0.79 0.85
0.01 0.03 0.06 0.11 0.08 0.07 0.09 0.13 0.22 0.35 0.36 0.40 0.47 0.54 0.33 0.40 0.47 0.47 0.42 0.36 0.31 0.27 0.23 0.20 0.19 0.19 0.20 0.23 0.28 0.33 0.36 0.38 0.41 0.40 0.38 0.39 0.39 0.38 0.37 0.41 0.47 0.51 0.58 0.62
0.02 0.05 0.11 0.24 0.28 0.16 0.15 0.12 0.16 0.21 0.28 0.32 0.42 0.48 0.35 0.37 0.41 0.44 0.45 0.41 0.32 0.25 0.22 0.21 0.20 0.20 0.22 0.27 0.31 0.34 0.39 0.39 0.41 0.39 0.38 0.41 0.40 0.38 0.33 0.32 0.35 0.38 0.38 0.38
0.02 0.04 0.06 0.12 0.13 0.09 0.12 0.14 0.17 0.23 0.31 0.30 0.29 0.37 0.45 0.48 0.48 0.44 0.42 0.40 0.35 0.25 0.18 0.19 0.21 0.22 0.24 0.27 0.28 0.28 0.33 0.39 0.44 0.48 0.55 0.55 0.50 0.46 0.38 0.32 0.30 0.29 0.29 0.30
0.01 0.01 0.02 0.03 0.05 0.08 0.11 0.11 0.15 0.19 0.22 0.34 0.27 0.28 0.37 0.40 0.43 0.41 0.34 0.29 0.25 0.21 0.19 0.19 0.22 0.25 0.25 0.25 0.26 0.26 0.29 0.33 0.37 0.43 0.53 0.58 0.53 0.47 0.42 0.35 0.28 0.27 0.27 0.25
0.02 0.02 0.02 0.04 0.10 0.13 0.14 0.14 0.13 0.12 0.12 0.17 0.20 0.25 0.22 0.22 0.27 0.30 0.28 0.26 0.24 0.23 0.20 0.17 0.17 0.17 0.20 0.21 0.20 0.21 0.23 0.25 0.27 0.32 0.38 0.45 0.47 0.44 0.39 0.32 0.28 0.25 0.24 0.24
0.03 0.02 0.03 0.04 0.09 0.13 0.21 0.18 0.13 0.09 0.07 0.13 0.26 0.30 0.21 0.22 0.26 0.27 0.22 0.19 0.18 0.15 0.12 0.10 0.12 0.12 0.11 0.10 0.12 0.17 0.19 0.21 0.28 0.31 0.34 0.40 0.47 0.46 0.37 0.27 0.26 0.27 0.28 0.31
0.05 0.04 0.05 0.08 0.11 0.22 0.18 0.07 0.05 0.07 0.05 0.05 0.14 0.16 0.15 0.16 0.15 0.12 0.10 0.09 0.08 0.06 0.05 0.04 0.04 0.05 0.05 0.05 0.09 0.14 0.18 0.26 0.31 0.35 0.39 0.44 0.47 0.48 0.44 0.38 0.36 0.40 0.42 0.43
0.05 0.05 0.04 0.06 0.10 0.13 0.07 0.05 0.06 0.08 0.08 0.03 0.06 0.08 0.07 0.05 0.07 0.08 0.04 0.02 0.01 0.01 0.01 0.01 0.02 0.03 0.04 0.07 0.12 0.19 0.28 0.36 0.40 0.42 0.43 0.46 0.52 0.59 0.59 0.54 0.49 0.49 0.52 0.48
0.05 0.04 0.04 0.05 0.10 0.13 0.07 0.05 0.05 0.06 0.15 0.07 0.04 0.04 0.03 0.03 0.10 0.13 0.04 0.00 0.00 0.00 0.01 0.01 0.03 0.05 0.08 0.12 0.16 0.25 0.35 0.43 0.48 0.47 0.45 0.47 0.53 0.61 0.68 0.68 0.62 0.58 0.60 0.53
0.05 0.05 0.05 0.06 0.08 0.06 0.03 0.04 0.04 0.12 0.19 0.03 0.01 0.01 0.01 0.03 0.07 0.06 0.02 0.00 0.00 0.01 0.01 0.02 0.06 0.09 0.11 0.13 0.18 0.29 0.39 0.46 0.45 0.44 0.47 0.54 0.61 0.68 0.72 0.78 0.78 0.75 0.69 0.64
0.03 0.04 0.05 0.06 0.09 0.10 0.02 0.01 0.02 0.04 0.03 0.01 0.01 0.01 0.01 0.01 0.01 0.00 0.00 0.01 0.01 0.01 0.02 0.04 0.09 0.13 0.13 0.14 0.22 0.32 0.38 0.41 0.45 0.48 0.54 0.61 0.69 0.66 0.71 0.92 0.96 0.99 0.94 0.80
0.02 0.03 0.03 0.03 0.05 0.02 0.01 0.00 0.01 0.01 0.01 0.01 0.01 0.01 0.01 0.01 0.01 0.01 0.01 0.01 0.01 0.01 0.03 0.06 0.11 0.15 0.19 0.25 0.32 0.40 0.38 0.42 0.50 0.59 0.65 0.65 0.66 0.73 0.83 0.93 0.97 0.97 0.94 0.89
0.00 0.01 0.02 0.03 0.02 0.01 0.01 0.01 0.01 0.00 0.00 0.00 0.00 0.01 0.01 0.01 0.01 0.01 0.01 0.02 0.02 0.03 0.06 0.10 0.16 0.25 0.33 0.41 0.44 0.44 0.45 0.52 0.63 0.72 0.77 0.79 0.78 0.76 0.81 0.94 0.96 0.94 0.88 0.86
0.00 0.00 0.02 0.04 0.02 0.01 0.01 0.01 0.00 0.00 0.00 0.00 0.00 0.01 0.01 0.02 0.02 0.02 0.02 0.03 0.04 0.05 0.08 0.13 0.22 0.32 0.36 0.43 0.53 0.55 0.63 0.75 0.83 0.81 0.78 0.80 0.84 0.92 0.95 0.94 0.95 0.93 0.91 0.80
0.01 0.02 0.03 0.04 0.04 0.04 0.03 0.01 0.00 0.00 0.00 0.01 0.01 0.01 0.02 0.03 0.03 0.02 0.03 0.03 0.04 0.07 0.11 0.17 0.25 0.33 0.39 0.48 0.57 0.62 0.72 0.84 0.96 0.94 0.85 0.86 0.88 0.91 0.96 0.96 0.87 0.75 0.67 0.57